Everett, WA

3:16 PM PST on November 12, 2019 (GMT -0800)
Snohomish County

Weather History for KPAE - August, 2019

Change the Weather History Date:

Wednesday, August 14, 2019

  Actual Average Record
Temperature  
Mean Temperature 68 °F -  
Max Temperature 79 °F 74 °F 88 °F (1986)
Min Temperature 59 °F 54 °F 44 °F (1954)
Cooling Degree Days 4    
Growing Degree Days 18 (Base 50)    
Moisture  
Dew Point 54 °F    
Average Humidity 65    
Maximum Humidity 90    
Minimum Humidity 42    
Precipitation  
Precipitation 0.00 in - - ()
Sea Level Pressure  
Sea Level Pressure 30.17 in    
Wind  
Wind Speed 4 mph (NNW)    
Max Wind Speed 12 mph    
Max Gust Speed 18 mph    
Visibility 10 miles    
Events      
Averages and records for this station are not official NWS values.
T = Trace of Precipitation, MM = Missing Value Source: NWS Daily Summary

Daily Weather History Graph

Daily Weather History Graph

Search for Another Location

Airport or City:

Astronomy

Aug. 14, 2019 Rise Set
Actual Time 6:02 AM PDT 8:23 PM PDT
Civil Twilight 5:28 AM PDT 8:58 PM PDT
Nautical Twilight 4:45 AM PDT 9:40 PM PDT
Astronomical Twilight 3:56 AM PDT 10:29 PM PDT
Moon 8:26 PM PDT (8/14) 4:57 AM PDT (8/14)
Length of Visible Light 15h 29m
Length of Day
14h 21m
Full, 100% of the Moon is Illuminated
Aug 14
Full
Aug 15
Full
Aug 23
Last Quarter
Aug 30
New
Sep 5
First Quarter

Hourly Weather History & Observations

Time (PDT) Temp. Dew Point Humidity Pressure Visibility Wind Dir Wind Speed Gust Speed Precip Events Conditions
12:53 AM 64.0 °F 51.1 °F 63% 30.13 in 10.0 mi North 3.5 mph - N/A   Clear
1:53 AM 63.0 °F 52.0 °F 67% 30.13 in 10.0 mi Calm Calm - N/A   Clear
2:53 AM 62.1 °F 52.0 °F 70% 30.14 in 10.0 mi North 3.5 mph - N/A   Clear
3:53 AM 61.0 °F 52.0 °F 72% 30.14 in 10.0 mi North 3.5 mph - N/A   Clear
4:53 AM 61.0 °F 52.0 °F 72% 30.15 in 10.0 mi Calm Calm - N/A   Clear
5:53 AM 59.0 °F 52.0 °F 78% 30.16 in 10.0 mi NNW 3.5 mph - N/A   Clear
6:53 AM 61.0 °F 54.0 °F 78% 30.17 in 10.0 mi North 3.5 mph - N/A   Clear
7:53 AM 64.0 °F 54.0 °F 70% 30.17 in 10.0 mi Variable 3.5 mph - N/A   Clear
8:53 AM 66.9 °F 54.0 °F 63% 30.19 in 10.0 mi North 4.6 mph - N/A   Clear
9:53 AM 69.1 °F 55.0 °F 61% 30.19 in 10.0 mi Variable 3.5 mph - N/A   Clear
10:53 AM 71.1 °F 55.0 °F 57% 30.19 in 10.0 mi West 4.6 mph - N/A   Clear
11:53 AM 73.0 °F 55.0 °F 53% 30.19 in 10.0 mi Variable 4.6 mph - N/A   Clear
12:53 PM 73.9 °F 55.9 °F 53% 30.18 in 10.0 mi WSW 6.9 mph - N/A   Clear
1:53 PM 75.9 °F 54.0 °F 46% 30.18 in 10.0 mi WNW 5.8 mph - N/A   Clear
2:53 PM 78.1 °F 53.1 °F 42% 30.18 in 10.0 mi West 6.9 mph - N/A   Clear
3:53 PM 77.0 °F 54.0 °F 45% 30.17 in 10.0 mi North 8.1 mph - N/A   Clear
4:53 PM 77.0 °F 55.0 °F 47% 30.17 in 10.0 mi NNW 8.1 mph - N/A   Clear
5:53 PM 73.9 °F 55.9 °F 53% 30.16 in 10.0 mi North 8.1 mph - N/A   Clear
6:53 PM 70.0 °F 55.0 °F 59% 30.16 in 10.0 mi North 6.9 mph - N/A   Clear
7:53 PM 64.0 °F 55.0 °F 73% 30.17 in 10.0 mi North 5.8 mph - N/A   Overcast
8:53 PM 62.1 °F 55.0 °F 78% 30.18 in 10.0 mi North 6.9 mph - N/A   Scattered Clouds
9:53 PM 61.0 °F 55.9 °F 83% 30.18 in 10.0 mi North 9.2 mph 18.4 mph N/A   Clear
10:53 PM 62.1 °F 55.9 °F 80% 30.19 in 10.0 mi North 11.5 mph 18.4 mph N/A   Clear
11:53 PM 60.1 °F 57.0 °F 90% 30.19 in 10.0 mi Variable 6.9 mph - N/A   Clear